History for KNYNEWYO343

Midtown West, New York, NY — Current Conditions
Daily Summary for June 28, 2017
  Current: High: Low: Average:
Temperature: 63.0°F 69.8°F 62.8°F 66.3°F
Dew Point: 51.4°F 52.3°F 50.4°F 51.6°F
Humidity: 66% 66% 52% 60%
Wind Speed: 0.0mph 2.5mph - 0.1mph
Wind Gust: 0.0mph 4.9mph - -
Wind: ESE - - SE
Pressure: 30.06in 30.07in 29.98in -
Precipitation: 0.00in      
Solar Radiation: 18 watts/m^2      
UV Index: 1.0      
Statistics for the rest of the month
    High: Low: Average:
Temperature:   95.7°F 52.5°F 73.2°F
Dew Point:   84.0°F 32.5°F 56.8°F
Humidity:   98.0% 20.0% 59.8%
Wind Speed:   6.5mph from the WSW - 0.1mph
Wind Gust:   9.8mph from the SE - -
Wind:   - - South
Pressure:   30.07in 29.53in -
Precipitation:   2.00in    
KNYNEWYO343 Weather Graph
Tabular Data for June 28, 2017
Time Temp. Dew Point Pressure Wind Gust Humidity Rainfall Solar Radiation
00:02 69.8°F 51.4°F 29.98in 0.0mph 52% 0.00in 0.00 watts/m^2
00:07 69.8°F 51.4°F 29.99in 0.0mph 52% 0.00in 0.00 watts/m^2
00:12 69.6°F 51.3°F 29.99in 0.0mph 52% 0.00in 0.00 watts/m^2
00:17 69.6°F 52.3°F 29.99in 0.0mph 54% 0.00in 0.00 watts/m^2
00:22 69.6°F 52.3°F 29.99in 2.5mph 54% 0.00in 0.00 watts/m^2
00:27 69.4°F 51.6°F 29.99in 0.0mph 53% 0.00in 0.00 watts/m^2
00:32 69.4°F 51.6°F 29.99in 0.0mph 53% 0.00in 0.00 watts/m^2
00:37 69.3°F 51.4°F 29.99in 0.0mph 53% 0.00in 0.00 watts/m^2
00:43 69.1°F 51.8°F 30.00in 0.0mph 54% 0.00in 0.00 watts/m^2
00:48 68.9°F 51.6°F 30.00in 0.0mph 54% 0.00in 0.00 watts/m^2
00:53 68.7°F 51.4°F 30.00in 0.0mph 54% 0.00in 0.00 watts/m^2
00:58 68.5°F 51.3°F 30.00in 0.0mph 54% 0.00in 0.00 watts/m^2
01:03 68.5°F 51.8°F 30.00in 0.0mph 55% 0.00in 0.00 watts/m^2
01:08 68.4°F 51.6°F 29.99in 0.0mph 55% 0.00in 0.00 watts/m^2
01:13 68.2°F 51.4°F 30.00in 0.0mph 55% 0.00in 0.00 watts/m^2
01:14 68.2°F 52.0°F 30.01in 0.0mph 56% 0.00in 0.00 watts/m^2
01:19 68.2°F 52.0°F 30.00in 0.0mph 56% 0.00in 0.00 watts/m^2
01:24 68.0°F 52.2°F 30.00in 0.0mph 57% 0.00in 0.00 watts/m^2
01:29 68.0°F 52.2°F 30.00in 0.0mph 57% 0.00in 0.00 watts/m^2
01:30 68.0°F 52.2°F 30.00in 0.0mph 57% 0.00in 0.00 watts/m^2
01:35 67.8°F 52.2°F 30.00in 0.0mph 57% 0.00in 0.00 watts/m^2
01:40 67.6°F 52.0°F 30.00in 0.0mph 57% 0.00in 0.00 watts/m^2
01:45 67.5°F 52.2°F 30.00in 0.0mph 58% 0.00in 0.00 watts/m^2
01:50 67.3°F 52.0°F 30.00in 0.0mph 58% 0.00in 0.00 watts/m^2
01:54 67.3°F 52.0°F 29.99in 0.0mph 58% 0.00in 0.00 watts/m^2
01:59 67.1°F 52.3°F 29.99in 0.0mph 59% 0.00in 0.00 watts/m^2
02:04 66.9°F 52.2°F 29.99in 0.0mph 59% 0.00in 0.00 watts/m^2
02:05 66.9°F 52.2°F 30.00in 0.0mph 59% 0.00in 0.00 watts/m^2
02:10 66.9°F 52.2°F 30.00in 0.0mph 59% 0.00in 0.00 watts/m^2
02:15 66.7°F 52.0°F 30.00in 2.5mph 59% 0.00in 0.00 watts/m^2
02:20 66.7°F 52.0°F 30.00in 0.0mph 59% 0.00in 0.00 watts/m^2
02:25 66.6°F 51.4°F 30.00in 0.0mph 58% 0.00in 0.00 watts/m^2
02:30 66.4°F 51.3°F 30.01in 0.0mph 58% 0.00in 0.00 watts/m^2
02:35 66.2°F 51.4°F 30.01in 0.0mph 59% 0.00in 0.00 watts/m^2
02:40 66.2°F 51.4°F 30.00in 2.5mph 59% 0.00in 0.00 watts/m^2
02:45 66.0°F 51.8°F 30.01in 0.0mph 60% 0.00in 0.00 watts/m^2
02:51 66.0°F 51.8°F 30.01in 0.0mph 60% 0.00in 0.00 watts/m^2
02:56 65.8°F 51.6°F 30.01in 0.0mph 60% 0.00in 0.00 watts/m^2
03:01 65.8°F 52.0°F 30.01in 0.0mph 61% 0.00in 0.00 watts/m^2
03:06 65.7°F 52.3°F 30.01in 0.0mph 62% 0.00in 0.00 watts/m^2
03:11 65.7°F 52.3°F 30.02in 0.0mph 62% 0.00in 0.00 watts/m^2
03:16 65.7°F 52.3°F 30.02in 0.0mph 62% 0.00in 0.00 watts/m^2
03:21 65.5°F 52.2°F 30.03in 0.0mph 62% 0.00in 0.00 watts/m^2
03:26 65.5°F 52.2°F 30.02in 0.0mph 62% 0.00in 0.00 watts/m^2
03:31 65.3°F 52.0°F 30.01in 0.0mph 62% 0.00in 0.00 watts/m^2
03:36 65.3°F 52.0°F 30.02in 0.0mph 62% 0.00in 0.00 watts/m^2
03:41 65.3°F 52.0°F 30.02in 0.0mph 62% 0.00in 0.00 watts/m^2
03:46 65.1°F 51.4°F 30.02in 0.0mph 61% 0.00in 0.00 watts/m^2
03:51 65.1°F 51.8°F 30.02in 0.0mph 62% 0.00in 0.00 watts/m^2
03:56 65.1°F 51.4°F 30.02in 4.9mph 61% 0.00in 0.00 watts/m^2
04:02 65.1°F 51.8°F 30.02in 0.0mph 62% 0.00in 0.00 watts/m^2
04:04 65.1°F 51.8°F 30.02in 0.0mph 62% 0.00in 0.00 watts/m^2
04:09 65.1°F 51.8°F 30.03in 0.0mph 62% 0.00in 0.00 watts/m^2
04:14 65.1°F 51.8°F 30.02in 0.0mph 62% 0.00in 0.00 watts/m^2
04:19 64.9°F 51.6°F 30.03in 0.0mph 62% 0.00in 0.00 watts/m^2
04:24 64.8°F 51.4°F 30.03in 0.0mph 62% 0.00in 0.00 watts/m^2
04:29 64.6°F 51.3°F 30.03in 0.0mph 62% 0.00in 0.00 watts/m^2
04:34 64.4°F 51.6°F 30.03in 0.0mph 63% 0.00in 0.00 watts/m^2
04:39 64.2°F 51.4°F 30.04in 0.0mph 63% 0.00in 0.00 watts/m^2
04:44 63.9°F 51.1°F 30.04in 0.0mph 63% 0.00in 0.00 watts/m^2
04:50 63.7°F 50.9°F 30.04in 0.0mph 63% 0.00in 0.00 watts/m^2
04:55 63.7°F 51.3°F 30.04in 0.0mph 64% 0.00in 0.00 watts/m^2
05:00 63.5°F 51.1°F 30.04in 0.0mph 64% 0.00in 0.00 watts/m^2
05:05 63.5°F 51.1°F 30.04in 0.0mph 64% 0.00in 0.00 watts/m^2
05:10 63.3°F 50.9°F 30.05in 0.0mph 64% 0.00in 0.00 watts/m^2
05:15 63.3°F 50.9°F 30.05in 0.0mph 64% 0.00in 0.00 watts/m^2
05:20 63.1°F 50.4°F 30.05in 0.0mph 63% 0.00in 0.00 watts/m^2
05:25 63.1°F 50.4°F 30.05in 0.0mph 63% 0.00in 0.00 watts/m^2
05:30 63.1°F 50.4°F 30.05in 0.0mph 63% 0.00in 0.00 watts/m^2
05:35 63.1°F 50.7°F 30.05in 0.0mph 64% 0.00in 1.12 watts/m^2
05:40 63.1°F 50.7°F 30.05in 0.0mph 64% 0.00in 2.58 watts/m^2
05:45 63.0°F 51.1°F 30.05in 0.0mph 65% 0.00in 4.23 watts/m^2
05:50 63.0°F 51.4°F 30.05in 0.0mph 66% 0.00in 5.24 watts/m^2
05:55 62.8°F 51.3°F 30.05in 0.0mph 66% 0.00in 6.66 watts/m^2
06:00 62.8°F 51.3°F 30.06in 0.0mph 66% 0.00in 7.97 watts/m^2
06:06 62.8°F 50.9°F 30.06in 0.0mph 65% 0.00in 9.40 watts/m^2
06:11 62.8°F 50.5°F 30.06in 0.0mph 64% 0.00in 10.59 watts/m^2
06:16 63.0°F 50.7°F 30.06in 0.0mph 64% 0.00in 11.72 watts/m^2
06:21 63.0°F 50.7°F 30.06in 0.0mph 64% 0.00in 13.39 watts/m^2
06:26 63.0°F 51.1°F 30.06in 0.0mph 65% 0.00in 18.16 watts/m^2
06:31 63.0°F 51.1°F 30.07in 0.0mph 65% 0.00in 17.05 watts/m^2
06:36 63.0°F 51.1°F 30.06in 0.0mph 65% 0.00in 17.64 watts/m^2
06:41 63.0°F 51.1°F 30.06in 2.5mph 65% 0.00in 17.74 watts/m^2
Comma Delimited File
Powered by Weather Underground, Inc.